Regional Weather Roundup
Issued by NWS Burlington, VT

Current Version | Previous Version | Text Only | Print | Product List | Glossary On
Versions: 1 2 3 4 5 6 7 8 9 10 11 12 13 14 15 16 17 18 19 20 21 22 23 24 25 26 27 28 29 30 31 32 33 34 35 36 37 38 39 40 41 42 43 44 45 46 47 48 49 50
000
ASUS41 KBTV 301730
RWRBTV
VERMONT REGIONAL WEATHER ROUNDUP
NATIONAL WEATHER SERVICE BURLINGTON VT
100 PM EDT SUN AUG 30 2015

NOTE: "FAIR" INDICATES FEW OR NO CLOUDS BELOW 12,000 FEET WITH NO
SIGNIFICANT WEATHER AND/OR OBSTRUCTIONS TO VISIBILITY.

* THESE REPORTS ARE NOT UNDER NWS QUALITY CONTROL AND/OR DO NOT
  REPORT WEATHER SUCH AS PRECIPITATION AND FOG.

VTZ001>019-301800-
_____VERMONT_____


CITY           SKY/WX    TMP DP  RH WIND       PRES   REMARKS
BURLINGTON     MOSUNNY   79  58  48 SW6       30.05F
MONTPELIER     MOSUNNY   74  59  59 VRB3      30.12F
MORRISVILLE    CLOUDY    78  59  51 NE5       30.08F
ST. JOHNSBURY*   N/A     75  59  57 MISG      30.06F
LYNDONVILLE*   CLOUDY    71  59  64 S7        30.10F
MIDDLEBURY*    FAIR      77  57  50 S5        30.07F
RUTLAND*       PTSUNNY   75  55  50 NW3       30.10F
SPRINGFIELD    PTSUNNY   79  54  41 N5        30.07F
HIGHGATE*      FAIR      76  62  61 W5        30.05S
NEWPORT*       FAIR      72  61  69 W9        30.08F
BENNINGTON     MOSUNNY   76  61  59 VRB3      30.10F
SUTTON*          N/A     70 N/A N/A MISG        N/A
MT. MANSFIELD*   N/A     59 N/A N/A NW7         N/A

_____LAKE CHAMPLAIN_____


CITY           SKY/WX    TMP DP  RH WIND       PRES   REMARKS
COLCHESTER RF*   N/A     73  63  68 S12         N/A
DIAMOND ISL*     N/A     73  63  68 N5          N/A

$$

NYZ007-026>031-035-052-083-301800-
_____NORTHERN NEW YORK_____


CITY           SKY/WX    TMP DP  RH WIND       PRES   REMARKS
PLATTSBURGH    PTSUNNY   76  63  64 S13       30.04F
SARANAC LAKE   PTSUNNY   72  57  59 VRB3      30.09F
MASSENA        SUNNY     77  61  57 NW7       30.06F
OGDENSBURG*    SUNNY     81  63  54 W6        30.05F
POTSDAM*       MOSUNNY   75  63  64 W5        30.06F
WATERTOWN      CLOUDY    75  60  59 W5        30.07F
FT DRUM        MOSUNNY   74  61  63 VRB3      30.07F
ALBANY         PTSUNNY   77  61  57 CALM      30.08F
GLENS FALLS    CLOUDY    76  61  59 E7        30.07F

$$
NHZ002-005-011-301800-
_____NEW HAMPSHIRE_____


CITY           SKY/WX    TMP DP  RH WIND       PRES   REMARKS
LEBANON        PTSUNNY   79  60  52 NE5       30.06F
KEENE          MOSUNNY   79  61  53 SW9       30.07F
MT WASHINGTON  FOG       52  46  82 NW9G18      N/A  VSB 1/8
PLYMOUTH       FAIR      78  57  49 W3        30.05F
WHITEFIELD     CLOUDY    73  59  61 NW6       30.09F

$$

_____REGIONAL QUEBEC LOCATIONS_____


CITY           SKY/WX    TMP DP  RH WIND       PRES   REMARKS
MONTREAL       PTSUNNY   75  63  64 SW13      30.03F
QUEBEC CITY    PTSUNNY   72  63  73 SW12      29.98F
SHERBROOKE     PTSUNNY   70  63  78 W8        30.05S

_____REGIONAL ONTARIO LOCATIONS_____


CITY           SKY/WX    TMP DP  RH WIND       PRES   REMARKS
OTTAWA         PTSUNNY   73  61  64 W6        30.06F

______KEY______
VSB  - VISIBILITY IN MILES
WCI  - WIND CHILL INDEX
HX   - HEAT INDEX
$$
NNNN


USA.gov is the U.S. government's official web portal to all federal, state and local government web resources and services.